Flag for Namibia Weather past 2 weeks in Swakopmund, Namibia

Now
48 °F

Clear.


Feels Like: 47 °F
Forecast: 56 / 70 °F
Wind: 3 mph from North

Location: Walvis Bay

Current Time: Aug 31, 2014 at 5:31:31 AM

Latest Report: Aug 31, 2014 at 5:00 AM


Visibility: 10 mi

Pressure: 30.01 "Hg

Humidity: 66%

Dew point: 37 °F

Location of SwakopmundLocation

Historic Weather in Swakopmund — Graph

°F

Swakopmund temperature yesterday

Maximum temperature yesterday: 93 °F (at 1:00 PM)
Minimum temperature yesterday: 46 °F (at 3:00 AM)
Average temperature yesterday: 67 °F

Past Weeks' High & Low Weather Summary

 TemperatureHumidityPressure
High93 °F (Aug 30, 1:00 PM)100% (Aug 16, 4:00 AM)30.21 "Hg (Aug 16, 4:00 AM)
Low41 °F (Aug 26, 4:00 AM)6% (Aug 30, 11:00 AM)29.92 "Hg (Aug 16, 2:00 PM)
Average56 °F71%30.06 "Hg
* Reported Aug 16 4:00 AM — Aug 31 4:00 AM, Swakopmund, Weather by CustomWeather, © 2014

Note: Actual official high and low records may vary slightly from our data, if they occured in-between our weather recording intervals... More about our weather records

Advertising

Swakopmund weather history for previous 24 hours

 ConditionsComfort  
Time TempWeatherWind HumidityBarometerVisibility
4:00 AM
Aug 31
52 °FCool.9 mph67%29.98 "HgN/A
3:00 AM52 °FCool.13 mph67%29.98 "HgN/A
2:00 AM55 °FRefreshingly cool.12 mph23%29.98 "HgN/A
1:00 AM57 °FRefreshingly cool.1 mph20%29.95 "HgN/A
12:00 AM59 °FRefreshingly cool.6 mph18%29.98 "HgN/A
11:00 PM
Aug 30
59 °FRefreshingly cool.8 mph21%29.98 "HgN/A
10:00 PM61 °FRefreshingly cool.7 mph19%29.98 "HgN/A
9:00 PM72 °FMild.6 mph12%29.98 "HgN/A
8:00 PM64 °FMild.3 mph15%29.95 "HgN/A
7:00 PM70 °FMild.2 mph12%29.95 "HgN/A
6:00 PM73 °FMild.6 mph12%29.95 "HgN/A
5:00 PM77 °FPleasantly warm.13 mph13%29.95 "HgN/A
4:00 PM82 °FPleasantly warm.14 mph11%29.92 "HgN/A
3:00 PM86 °FPleasantly warm.12 mph11%29.92 "HgN/A
2:00 PM88 °FPleasantly warm.12 mph10%29.95 "HgN/A
1:00 PM93 °FExtremely hot.12 mph8%29.95 "HgN/A
12:00 PM91 °FSunny.21 mph6%29.98 "Hg10 mi
11:00 AM88 °FSunny.28 mph6%29.98 "Hg10 mi
9:00 AM79 °FPleasantly warm.29 mph10%30.01 "HgN/A
8:00 AM66 °FMild.3 mph19%30.01 "HgN/A
7:00 AM57 °FSunny.9 mph27%30.01 "Hg10 mi
6:00 AM50 °FSunny.8 mph32%30.01 "Hg10 mi
5:00 AM46 °FClear.8 mph50%30.01 "Hg10 mi
Weather by CustomWeather, © 2014

See weather overviewHow to use our weather pages